Погода в Большой Аре

Россия / Нижегородская область     55°03′43″N   44°39′10″E
темп.,
°C
ветер,
м/с
пор.,
м/с
влажн.,
%
обл.,
%
осадки,
мм/ч
давл.,
гПа
погр.,
м
13 апреля, вт
вт1300:00+7вюв499799 0.0 1034160
03:00+7юв499449 0.0 1033139
06:00+7ююв4890100 0.0 1033123
09:00+13ююв5106346 0.0 1032378
12:00+17ю684137 0.0 1031870
15:00+18ю573425 0.0 10301200
18:00+15ююв35505 0.0 102984
21:00+11ююв466660 0.0 103086
14 апреля, ср
ср1400:00+9ююв4666100 0.0 102991
03:00+7ююв346660 0.0 102954
06:00+7ююв356832 0.0 102878
09:00+12ююв58505 0.0 1027377
12:00+16ююв57380 0.0 1025874
15:00+18ююв67360 0.0 10241303
18:00+15юв37520 0.0 1022127
21:00+11ююв35705 0.0 102377
15 апреля, чт
чт1500:00+9ююв33720 0.0 102227
03:00+8ююв22781 0.0 102216
06:00+8ююв33834 0.0 102132
09:00+13ююв33634 0.0 1020317
12:00+17ююв32464 0.0 10191201
15:00+18ю21405 0.0 10181677
18:00+16юв11505 0.0 101812
21:00+12в11575 0.0 101810
16 апреля, пт
пт1600:00+11св11655 0.0 101710
03:00+10св22704 0.0 101710
06:00+9св33785 0.0 101827
09:00+13ссв456163 0.0 1018359
12:00+15ссв555760 0.0 1019905
15:00+16ссв665516 0.0 10191467
18:00+12ссв710707 0.1 1020666
21:00+7св611825 0.1 1023512
17 апреля, сб
сб1700:00+6св613765 0.0 1024624
03:00+4св5128045 0.0 1025413
06:00+3св410800 0.0 1026361
09:00+6св69511 0.0 10271161
12:00+8ссв89465 0.0 10271572
15:00+8ссв910375 0.0 10281882
18:00+6св710440 0.0 10301602
21:00+3св612490 0.0 1032532